Lafayette, LA

4:52 AM CDT on October 24, 2017 (GMT -0500)
Lafayette Regional

Weather History for KLFT - December, 2012

Change the Weather History Date:

Tuesday, December 18, 2012

  Actual Average Record
Temperature  
Mean Temperature 58 °F 54 °F  
Max Temperature 71 °F 64 °F 81 °F (1924)
Min Temperature 44 °F 44 °F 18 °F (1901)
Degree Days  
Heating Degree Days 7 12  
Month to date heating degree days 92 190  
Since 1 July heating degree days 325 389  
Growing Degree Days 8 (Base 50)    
Moisture  
Dew Point 47 °F    
Average Humidity 65    
Maximum Humidity 93    
Minimum Humidity 37    
Precipitation  
Precipitation 0.00 in 0.18 in 5.74 in (1995)
Month to date precipitation 4.90 3.16  
Year to date precipitation 64.39 58.08  
Snow  
Snow 0.00 in 0.00 in T in (1953)
Month to date snowfall 0.0 0.0  
Since 1 July snowfall 0.0 0.0  
Snow Depth 0.00 in    
Sea Level Pressure  
Sea Level Pressure 29.97 in    
Wind  
Wind Speed 4 mph (South)    
Max Wind Speed 13 mph    
Max Gust Speed 17 mph    
Visibility 10 miles    
Events      
T = Trace of Precipitation, MM = Missing Value Source: NWS Daily Summary

Daily Weather History Graph

Daily Weather History Graph

Search for Another Location

Airport or City:

Trip Planner

Search our weather history database for the weather conditions in past years. The results will help you decide how hot, cold, wet, or windy it might be!

Date:

Astronomy

Dec. 18, 2012 Rise Set
Actual Time 6:58 AM CST 5:10 PM CST
Civil Twilight 6:32 AM CST 5:37 PM CST
Nautical Twilight 6:02 AM CST 6:07 PM CST
Astronomical Twilight 5:33 AM CST 6:36 PM CST
Moon 11:01 AM CST (12/18) 11:12 PM CST (12/18)
Length of Visible Light 11h 04m
Length of Day
10h 12m
Waxing Crescent, 35% of the Moon is Illuminated
Dec 18
Waxing Crescent
Dec 19
First Quarter
Dec 28
Full
Jan 4
Last Quarter
Jan 11
New

Hourly Weather History & Observations

Time (CST) Temp. Windchill Dew Point Humidity Pressure Visibility Wind Dir Wind Speed Gust Speed Precip Events Conditions
12:53 AM 50.0 °F - 44.1 °F 80% 29.95 in 10.0 mi Calm Calm - N/A   Clear
1:53 AM 46.9 °F - 44.1 °F 90% 29.94 in 10.0 mi Calm Calm - N/A   Clear
2:53 AM 45.0 °F 42.6 °F 42.1 °F 90% 29.94 in 10.0 mi SW 4.6 mph - N/A   Clear
3:53 AM 46.9 °F - 43.0 °F 86% 29.94 in 10.0 mi Calm Calm - N/A   Clear
4:53 AM 46.0 °F - 42.1 °F 86% 29.94 in 10.0 mi Calm Calm - N/A   Clear
5:53 AM 46.0 °F - 43.0 °F 89% 29.96 in 10.0 mi Calm Calm - N/A   Clear
6:53 AM 46.9 °F - 43.0 °F 86% 29.98 in 10.0 mi Calm Calm - N/A   Clear
7:53 AM 50.0 °F - 46.0 °F 86% 30.00 in 10.0 mi Calm Calm - N/A   Clear
8:53 AM 55.9 °F - 48.0 °F 75% 30.01 in 10.0 mi Calm Calm - N/A   Clear
9:53 AM 62.1 °F - 42.1 °F 48% 30.01 in 10.0 mi SSE 6.9 mph - N/A   Clear
10:53 AM 64.9 °F - 43.0 °F 45% 30.01 in 10.0 mi South 6.9 mph - N/A   Clear
11:53 AM 66.9 °F - 48.0 °F 51% 30.00 in 10.0 mi South 8.1 mph - N/A   Clear
12:53 PM 69.1 °F - 42.1 °F 38% 29.97 in 10.0 mi SSW 9.2 mph - N/A   Clear
1:53 PM 70.0 °F - 43.0 °F 38% 29.96 in 10.0 mi SSW 10.4 mph - N/A   Clear
2:53 PM 70.0 °F - 48.9 °F 47% 29.96 in 10.0 mi South 9.2 mph - N/A   Clear
3:53 PM 68.0 °F - 50.0 °F 52% 29.96 in 10.0 mi South 11.5 mph - N/A   Clear
4:53 PM 66.0 °F - 52.0 °F 60% 29.96 in 10.0 mi South 6.9 mph - N/A   Clear
5:53 PM 63.0 °F - 53.1 °F 70% 29.96 in 10.0 mi South 6.9 mph - N/A   Clear
6:53 PM 61.0 °F - 50.0 °F 67% 29.94 in 10.0 mi SSE 4.6 mph - N/A   Clear
7:53 PM 60.1 °F - 50.0 °F 69% 29.96 in 10.0 mi South 6.9 mph - N/A   Clear
8:53 PM 59.0 °F - 50.0 °F 72% 29.96 in 10.0 mi SSE 5.8 mph - N/A   Clear
9:53 PM 57.9 °F - 50.0 °F 75% 29.98 in 10.0 mi Variable 3.5 mph - N/A   Clear
10:53 PM 55.9 °F - 50.0 °F 80% 29.98 in 10.0 mi Calm Calm - N/A   Clear
11:53 PM 55.9 °F - 50.0 °F 80% 29.98 in 10.0 mi SE 3.5 mph - N/A   Clear